SCP
0 0 0 0 0 0 0 0 0 0 0 0 0 0 0 0 0 0 0 0 0 0 0 0 0 0 0 0 0 0 0 0 0 0 0 0 0 0 0 0 0 0 0
0 0 0 0 0 0 0 0 0 0 0 0 0 0 0 0 0 0 0 0 0 0 0 0 0 0 0 0 0 0 0 0 0 0 0 0 0 0 0 0 0 0 0
0 0 -0 -0 -0 0 0 0 0 0 0 0 0 0 0 0 0 0 0 0 0 0 0 0 0 0 0 0 0 0 0 0 0 0 0 0 0 0 -0 -0 0 0 0
0 0 0 0 0 0 0 0 0 0 0 0 0 0 0 0 0 0 0 0 0 0 0 0 0 0 0 0 0 0 0 0 0 0 0 0 0 0 -0 0 0 0 0
0 0 0 0 0 0 0 0 0 0 0 0 0 0 0 0 0 0 0 0 0 0 0 0 0 0 0 0 0 0 -0 0 0 0 0 0 0 0 0 -0 -0 0 0
0 0 0 0 0 0 0 0 0 0 0 0 0 0 0 0 0 0 0 0 0 0 0 0 0 0 0 0 0 0 0 0 0 0 0 0 0 0 0 0 -0 0 0
0 0 0 0 0 0 0 0 0 0 0 0 0 0 0 0 0 0 0 0 0 0 0 0 0 0 0 0 0 0 0 0 0 0 0 0 0 0 0 -0 -0 0 0
0 -0 -0 0 0 0 0 0 0 0 0 0 0 0 0 0 0 0 0 0 0 0 0 0 0 0 0 0 0 0 0 0 0 0 0 0 0 0 0 0 0 0 0
-0 -0 -0 -0 0 -0 -0 0 0 0 0 0 0 0 0 0 0 0 0 0 0 0 0 0 0 0 0 0 0 0 0 0 0 0 0 0 0 0 0 0 0 0 0
-0 -0 -0 -0 -0 -0 0 0 0 0 0 0 0 0 0 0 0 0 0 0 0 0 0 0 0 0 0 0 0 0 0 -0 -0 -0 -0 -0 -0 -0 0 0 0 0 0
-0 -0 -0 -0 0 0 0 0 0 0 0 0 0 0 0 0 0 0 0 0 0 0 0 0 0 0 0 0 0 0 0 0 -0 0 -0 0 -0 -0 -0 0 0 0 0
-0 -0 -0 0 0 0 0 0 0 0 0 0 0 0 0 0 0 0 0 0 0 0 0 0 0 0 0 0 0 0 0 0 0 0 -0 -0 -0 -0 -0 -0 -0 0 0
0 0 -0 0 0 0 0 0 0 0 0 0 0 0 0 0 0 0 0 0 0 0 0 0 0 0 0 0 0 0 0 0 0 0 0 0 0 0 -0 -0 -0 0 0
0 0 0 0 0 0 0 0 0 0 0 0 0 0 0 0 0 0 0 0 0 0 0 0 0 0 0 0 0 0 0 0 0 0 -0 -0 -0 -0 -0 -0 -0 0 0
0 0 0 0 0 0 0 0 0 0 0 0 0 0 0 0 0 0 0 0 0 0 0 0 0 0 0 0 0 0 0 0 0 0 -0 -0 -0 -0 -0 -0 0 -0 -0
0 0 0 0 0 0 0 0 0 0 0 0 0 0 0 0 0 0 0 0 0 0 0 0 0 0 0 0 0 0 0 0 0 0 0 0 0 -0 -0 -0 -0 0 0
0 0 0 0 0 0 0 0 0 0 0 0 0 0 0 0 0 0 0 0 0 0 0 0 0 0 0 0 0 0 0 0 0 0 0 0 0 0 0 0 0 0 0
0 0 0 0 0 0 0 0 0 0 0 0 0 0 0 0 0 0 0 0 0 0 0 0 0 0 0 0 0 -0 0 0 0 0 0 0 0 0 -0 -0 -0 0 0
0 0 0 0 0 0 0 0 0 0 0 0 0 0 0 0 0 0 0 0 0 0 0 0 0 0 0 -0 -0 -0 -0 0 -0 0 0 0 0 -0 -0 -0 -0 -0 0
0 0 0 0 0 -0 0 0 0 0 0 0 0 0 0 0 0 0 0 0 0 0 0 0 0 0 0 -0 -0 -0 0 0 0 0 0 -0 -0 -0 -0 0 0 0 0
0 0 0 0 0 0 0 0 0 0 0 0 0 0 0 0 0 0 0 0 0 0 0 0 0 0 0 0 -0 0 0 0 0 0 0 0 -0 -0 -0 0 0 0 0
0 0 0 0 0 0 0 0 0 0 0 -0 0 0 0 0 0 0 0 0 0 0 0 0 0 0 0 0 0 0 0 -0 0 0 0 -0 -0 -0 -0 -0 -0 0 0
0 0 0 0 0 0 0 0 0 0 0 0 0 0 0 0 0 0 0 0 0 0 0 0 0 0 0 0 0 0 -0 -0 -0 0 -0 -0 -0 -0 -0 0 -0 0 0
0 0 0 0 0 0 0 0 0 0 0 0 0 0 0 0 0 0 0 0 0 0 0 0 0 0 0 0 0 0 0 0 -0 -0 0 0 0 -0 -0 -0 0 0 0
0 0 0 0 0 0 0 0 0 0 0 0 0 0 0 0 0 0 0 0 0 0 0 0 0 0 0 0 0 0 0 0 0 0 0 0 0 0 0 0 0 0 0
0 0 0 0 0 0 0 0 0 0 0 0 0 0 0 0 0 0 0 0 0 0 0 0 0 0 0 0 0 0 0 0 0 0 0 0 0 0 0 0 0 0 0
Wind_Speed_500mb
6 13 17 16 15 17 11 20 9 8 8 27 37 45 45 35 34 40 34 35 41 49 47 38 51 45 47 44 49 51 48 46 43 42 47 47 48 47 38 47 38 27 33
6 8 4 7 3 6 10 26 21 9 14 22 40 42 42 42 42 34 35 37 37 36 39 44 43 44 45 47 48 54 55 54 48 45 46 48 48 47 48 52 54 38 35
2 5 4 6 9 12 16 24 29 20 27 32 24 32 45 30 30 27 27 37 37 39 42 42 42 42 47 51 55 58 62 62 55 50 38 22 27 48 42 60 54 45 34
11 9 3 9 5 13 15 16 23 25 29 15 20 23 13 16 18 23 32 38 44 48 52 50 45 45 47 47 52 57 65 59 46 36 40 34 33 35 46 39 67 56 36
15 14 11 9 9 13 11 15 20 23 12 7 4 7 9 10 18 26 33 42 44 47 48 53 57 55 48 50 53 50 47 53 50 40 47 42 47 37 49 64 67 61 44
18 17 14 9 8 13 14 13 8 9 11 12 4 3 13 18 23 31 34 38 40 46 49 47 51 55 57 59 53 48 50 52 49 46 47 49 48 40 46 60 48 56 56
20 16 14 9 9 12 9 5 5 1 4 7 4 15 23 26 30 33 34 40 46 45 45 58 58 63 67 66 54 46 46 44 40 39 41 43 44 41 46 48 42 47 50
24 21 17 17 14 12 10 14 11 7 2 8 14 19 23 28 29 32 39 33 36 43 56 59 62 57 56 53 52 50 48 45 43 36 34 37 35 32 33 39 36 42 41
34 30 23 18 15 17 17 11 7 3 2 8 16 22 23 25 32 32 23 31 40 49 56 54 55 56 54 52 46 44 44 43 38 39 35 36 32 33 31 31 31 31 27
36 31 24 19 18 19 16 8 4 11 18 21 21 21 24 30 16 20 28 37 43 51 51 50 53 55 55 49 43 41 37 31 29 31 37 34 36 30 27 28 32 35 37
41 33 29 23 23 23 24 22 21 22 23 22 22 26 29 11 17 27 34 39 46 52 45 46 51 55 54 45 39 32 27 22 23 24 24 26 27 28 28 34 38 40 40
39 37 33 31 29 30 30 29 26 23 19 19 23 30 18 17 24 31 35 39 47 40 41 45 50 48 45 41 36 30 26 27 29 26 29 31 32 37 38 41 42 40 41
41 40 39 36 36 36 34 33 31 23 21 22 27 23 19 24 28 31 35 42 42 38 39 45 44 41 40 37 30 26 25 30 30 32 36 39 42 45 40 38 40 39 38
41 42 43 41 38 39 39 39 34 27 25 27 28 23 23 29 26 30 34 40 37 34 36 37 41 42 43 42 39 38 32 28 29 30 29 28 32 34 30 30 28 26 31
44 44 44 41 38 36 36 35 32 28 28 31 29 27 27 31 26 28 33 37 33 32 37 39 40 41 44 43 42 43 38 35 30 21 21 26 22 17 17 18 17 23 26
49 47 40 36 38 35 32 30 28 27 28 30 30 28 31 30 31 31 32 39 36 34 36 39 43 44 43 43 41 42 36 24 20 17 13 10 8 4 4 5 10 15 19
48 43 37 31 27 33 30 28 24 23 28 30 31 30 33 36 35 35 33 38 37 36 35 38 42 46 45 46 45 39 28 19 12 15 14 6 4 7 9 10 12 17 22
29 21 19 19 24 27 26 23 22 25 29 35 37 35 35 41 38 39 35 37 38 39 36 38 42 49 51 50 41 31 16 15 15 14 14 12 10 12 11 14 20 21 19
12 9 11 10 15 20 17 19 25 28 32 37 39 37 35 39 40 43 39 37 41 40 37 38 44 49 55 49 35 15 11 11 9 7 9 13 12 16 21 21 17 12 10
9 10 7 8 10 7 15 24 30 37 41 38 33 35 40 46 48 48 45 41 42 42 41 38 43 47 53 43 21 10 5 2 3 9 8 8 7 9 6 1 2 3 5
18 16 18 20 21 28 28 37 42 47 46 49 40 42 45 50 52 51 50 47 44 43 44 42 42 46 46 33 18 14 10 9 5 7 10 4 4 2 7 12 12 12 16
25 28 31 35 36 45 47 51 59 67 69 78 72 70 59 57 56 55 52 51 48 46 45 45 43 38 37 25 20 18 18 17 12 7 2 1 4 6 6 10 11 8 4
34 36 33 45 49 53 56 55 51 48 51 54 76 67 53 67 64 63 58 53 51 51 49 45 45 36 31 27 28 25 21 23 22 16 12 11 8 7 6 7 9 8 7
24 19 30 37 26 25 29 31 33 28 35 44 47 41 44 60 60 59 66 66 58 56 52 48 46 37 33 29 29 32 30 27 29 26 21 20 18 15 11 8 11 14 10
10 9 12 14 14 18 21 23 23 26 28 30 33 33 37 43 48 50 55 62 66 67 66 60 52 45 41 32 30 37 38 34 32 33 32 28 27 24 18 12 9 8 10
20 21 20 21 26 26 30 35 36 39 39 41 43 46 44 43 44 45 49 51 59 65 65 64 63 61 56 45 42 39 45 42 37 36 37 33 31 31 27 21 16 14 14
Wind_Direction_500mb
264 301 282 284 274 282 233 237 172 32 325 239 238 249 258 246 263 279 277 276 271 281 290 289 296 276 275 271 272 269 270 273 283 288 286 282 285 291 309 321 314 287 281
307 303 274 305 239 209 215 183 193 266 319 254 244 254 253 260 271 271 287 289 296 303 303 299 291 285 282 276 271 271 267 269 271 277 280 285 287 297 304 314 323 304 283
219 241 12 65 146 172 197 204 220 254 316 314 266 251 257 277 290 288 282 300 307 317 319 317 311 300 292 285 282 278 272 265 264 268 263 263 273 298 310 316 321 316 292
208 200 196 135 149 187 199 221 235 253 304 292 278 269 266 281 289 290 295 307 310 313 317 315 311 302 308 305 297 293 299 290 259 255 249 257 272 299 310 306 309 312 300
200 183 195 174 182 185 202 213 236 260 279 319 280 240 229 287 297 298 305 311 313 317 316 315 316 318 316 307 306 298 292 289 290 294 291 290 281 273 287 298 303 302 298
193 194 197 203 196 190 206 200 234 271 291 298 255 247 293 304 305 311 310 308 304 310 318 322 324 320 314 312 306 295 285 284 286 284 279 276 269 272 277 281 291 294 300
182 194 197 195 169 176 187 211 230 54 66 124 267 310 319 320 315 306 307 312 318 325 326 326 321 316 313 312 307 296 286 281 283 282 282 280 271 268 270 272 281 289 303
173 163 155 162 173 182 168 148 112 82 18 325 331 318 308 296 296 307 315 320 328 330 329 319 314 314 315 312 305 301 290 284 271 274 284 283 272 268 262 266 277 288 295
161 149 157 165 161 147 146 125 59 58 328 275 292 284 283 291 305 313 320 325 332 328 319 321 326 328 326 324 318 309 302 284 274 273 272 280 268 270 260 262 270 273 284
161 160 161 164 164 171 177 176 231 249 255 266 274 282 289 301 310 323 333 330 324 323 325 329 335 336 328 327 324 320 316 289 282 282 276 268 272 264 259 259 272 276 271
170 170 172 179 189 202 216 222 231 245 263 269 272 288 300 286 326 338 331 319 323 326 325 331 333 332 334 332 330 330 326 298 286 289 298 273 268 268 265 269 272 274 263
178 183 187 193 205 219 231 235 242 250 252 259 285 302 288 293 328 330 330 321 324 324 325 333 335 339 338 333 325 331 322 308 286 290 285 276 274 271 270 273 271 266 262
191 195 202 207 216 225 237 243 248 249 254 275 305 291 286 303 316 321 335 324 325 324 326 331 335 335 339 348 340 335 326 315 304 294 289 279 271 275 273 270 267 260 256
201 207 213 218 227 236 244 249 245 251 267 287 303 282 283 301 311 320 332 331 329 333 335 337 341 336 329 329 330 328 318 314 308 304 296 289 279 274 274 269 262 255 252
211 218 223 229 236 242 243 238 239 261 280 282 296 284 279 298 307 320 327 329 332 332 337 335 336 336 331 329 325 326 323 317 314 312 312 309 295 272 268 266 263 261 259
222 227 233 239 250 251 247 243 260 280 279 283 294 289 275 290 301 312 318 329 329 326 330 332 332 332 333 331 325 320 319 320 314 318 326 340 18 13 342 281 285 275 260
233 238 246 249 251 248 250 262 289 282 283 289 294 299 283 289 299 300 309 326 325 323 325 329 331 331 330 327 323 315 309 314 299 290 310 297 333 340 298 281 292 288 273
246 232 232 245 243 248 259 287 289 287 290 290 293 294 295 291 296 299 301 316 316 321 316 321 326 328 332 324 316 310 306 313 308 296 273 263 283 301 286 282 295 304 284
216 241 252 257 274 277 288 279 285 291 293 299 298 299 299 294 295 296 302 303 313 310 312 313 320 324 330 322 309 282 310 324 339 314 279 275 282 286 285 283 294 302 316
259 285 269 305 331 310 275 286 300 293 292 300 304 300 293 292 295 296 300 294 306 305 305 307 317 322 327 323 296 267 277 165 345 316 310 286 300 320 306 257 333 67 77
292 278 272 297 317 315 291 285 293 296 310 302 298 294 294 292 294 296 292 291 297 298 302 301 311 320 325 320 269 266 246 224 268 332 332 328 319 42 102 124 114 107 95
293 273 266 282 297 294 292 295 295 298 304 304 307 295 292 292 292 290 291 290 288 292 296 296 303 311 318 306 270 268 255 239 248 272 264 172 145 138 128 152 134 111 51
283 270 294 308 297 303 300 295 312 309 299 290 301 297 289 290 290 289 289 290 285 286 291 291 296 298 305 303 268 262 261 258 247 245 238 232 209 186 183 216 233 266 298
325 298 287 301 320 328 319 304 304 298 289 292 303 311 302 293 292 283 287 285 287 283 285 287 287 287 293 299 270 257 265 270 251 244 242 234 229 228 224 232 265 265 260
48 3 8 16 0 333 330 331 333 326 319 316 323 324 318 318 307 295 283 283 285 283 284 285 284 275 279 288 283 255 257 260 260 251 245 242 237 232 232 224 250 272 253
36 35 31 19 11 358 351 350 350 350 343 336 331 329 324 319 321 316 303 287 281 278 278 279 278 275 271 273 273 272 251 253 256 241 239 241 240 234 231 234 243 256 238
Wind_Speed_850mb
6 13 17 16 15 17 11 20 9 8 8 27 37 45 45 35 34 40 34 35 41 49 47 38 51 45 47 44 49 51 48 46 43 42 47 47 48 47 38 47 38 27 33
6 8 4 7 3 6 10 26 21 9 14 22 40 42 42 42 42 34 35 37 37 36 39 44 43 44 45 47 48 54 55 54 48 45 46 48 48 47 48 52 54 38 35
2 5 4 6 9 12 16 24 29 20 27 32 24 32 45 30 30 27 27 37 37 39 42 42 42 42 47 51 55 58 62 62 55 50 38 22 27 48 42 60 54 45 34
11 9 3 9 5 13 15 16 23 25 29 15 20 23 13 16 18 23 32 38 44 48 52 50 45 45 47 47 52 57 65 59 46 36 40 34 33 35 46 39 67 56 36
15 14 11 9 9 13 11 15 20 23 12 7 4 7 9 10 18 26 33 42 44 47 48 53 57 55 48 50 53 50 47 53 50 40 47 42 47 37 49 64 67 61 44
18 17 14 9 8 13 14 13 8 9 11 12 4 3 13 18 23 31 34 38 40 46 49 47 51 55 57 59 53 48 50 52 49 46 47 49 48 40 46 60 48 56 56
20 16 14 9 9 12 9 5 5 1 4 7 4 15 23 26 30 33 34 40 46 45 45 58 58 63 67 66 54 46 46 44 40 39 41 43 44 41 46 48 42 47 50
24 21 17 17 14 12 10 14 11 7 2 8 14 19 23 28 29 32 39 33 36 43 56 59 62 57 56 53 52 50 48 45 43 36 34 37 35 32 33 39 36 42 41
34 30 23 18 15 17 17 11 7 3 2 8 16 22 23 25 32 32 23 31 40 49 56 54 55 56 54 52 46 44 44 43 38 39 35 36 32 33 31 31 31 31 27
36 31 24 19 18 19 16 8 4 11 18 21 21 21 24 30 16 20 28 37 43 51 51 50 53 55 55 49 43 41 37 31 29 31 37 34 36 30 27 28 32 35 37
41 33 29 23 23 23 24 22 21 22 23 22 22 26 29 11 17 27 34 39 46 52 45 46 51 55 54 45 39 32 27 22 23 24 24 26 27 28 28 34 38 40 40
39 37 33 31 29 30 30 29 26 23 19 19 23 30 18 17 24 31 35 39 47 40 41 45 50 48 45 41 36 30 26 27 29 26 29 31 32 37 38 41 42 40 41
41 40 39 36 36 36 34 33 31 23 21 22 27 23 19 24 28 31 35 42 42 38 39 45 44 41 40 37 30 26 25 30 30 32 36 39 42 45 40 38 40 39 38
41 42 43 41 38 39 39 39 34 27 25 27 28 23 23 29 26 30 34 40 37 34 36 37 41 42 43 42 39 38 32 28 29 30 29 28 32 34 30 30 28 26 31
44 44 44 41 38 36 36 35 32 28 28 31 29 27 27 31 26 28 33 37 33 32 37 39 40 41 44 43 42 43 38 35 30 21 21 26 22 17 17 18 17 23 26
49 47 40 36 38 35 32 30 28 27 28 30 30 28 31 30 31 31 32 39 36 34 36 39 43 44 43 43 41 42 36 24 20 17 13 10 8 4 4 5 10 15 19
48 43 37 31 27 33 30 28 24 23 28 30 31 30 33 36 35 35 33 38 37 36 35 38 42 46 45 46 45 39 28 19 12 15 14 6 4 7 9 10 12 17 22
29 21 19 19 24 27 26 23 22 25 29 35 37 35 35 41 38 39 35 37 38 39 36 38 42 49 51 50 41 31 16 15 15 14 14 12 10 12 11 14 20 21 19
12 9 11 10 15 20 17 19 25 28 32 37 39 37 35 39 40 43 39 37 41 40 37 38 44 49 55 49 35 15 11 11 9 7 9 13 12 16 21 21 17 12 10
9 10 7 8 10 7 15 24 30 37 41 38 33 35 40 46 48 48 45 41 42 42 41 38 43 47 53 43 21 10 5 2 3 9 8 8 7 9 6 1 2 3 5
18 16 18 20 21 28 28 37 42 47 46 49 40 42 45 50 52 51 50 47 44 43 44 42 42 46 46 33 18 14 10 9 5 7 10 4 4 2 7 12 12 12 16
25 28 31 35 36 45 47 51 59 67 69 78 72 70 59 57 56 55 52 51 48 46 45 45 43 38 37 25 20 18 18 17 12 7 2 1 4 6 6 10 11 8 4
34 36 33 45 49 53 56 55 51 48 51 54 76 67 53 67 64 63 58 53 51 51 49 45 45 36 31 27 28 25 21 23 22 16 12 11 8 7 6 7 9 8 7
24 19 30 37 26 25 29 31 33 28 35 44 47 41 44 60 60 59 66 66 58 56 52 48 46 37 33 29 29 32 30 27 29 26 21 20 18 15 11 8 11 14 10
10 9 12 14 14 18 21 23 23 26 28 30 33 33 37 43 48 50 55 62 66 67 66 60 52 45 41 32 30 37 38 34 32 33 32 28 27 24 18 12 9 8 10
20 21 20 21 26 26 30 35 36 39 39 41 43 46 44 43 44 45 49 51 59 65 65 64 63 61 56 45 42 39 45 42 37 36 37 33 31 31 27 21 16 14 14
Wind_Direction_850mb
264 301 282 284 274 282 233 237 172 32 325 239 238 249 258 246 263 279 277 276 271 281 290 289 296 276 275 271 272 269 270 273 283 288 286 282 285 291 309 321 314 287 281
307 303 274 305 239 209 215 183 193 266 319 254 244 254 253 260 271 271 287 289 296 303 303 299 291 285 282 276 271 271 267 269 271 277 280 285 287 297 304 314 323 304 283
219 241 12 65 146 172 197 204 220 254 316 314 266 251 257 277 290 288 282 300 307 317 319 317 311 300 292 285 282 278 272 265 264 268 263 263 273 298 310 316 321 316 292
208 200 196 135 149 187 199 221 235 253 304 292 278 269 266 281 289 290 295 307 310 313 317 315 311 302 308 305 297 293 299 290 259 255 249 257 272 299 310 306 309 312 300
200 183 195 174 182 185 202 213 236 260 279 319 280 240 229 287 297 298 305 311 313 317 316 315 316 318 316 307 306 298 292 289 290 294 291 290 281 273 287 298 303 302 298
193 194 197 203 196 190 206 200 234 271 291 298 255 247 293 304 305 311 310 308 304 310 318 322 324 320 314 312 306 295 285 284 286 284 279 276 269 272 277 281 291 294 300
182 194 197 195 169 176 187 211 230 54 66 124 267 310 319 320 315 306 307 312 318 325 326 326 321 316 313 312 307 296 286 281 283 282 282 280 271 268 270 272 281 289 303
173 163 155 162 173 182 168 148 112 82 18 325 331 318 308 296 296 307 315 320 328 330 329 319 314 314 315 312 305 301 290 284 271 274 284 283 272 268 262 266 277 288 295
161 149 157 165 161 147 146 125 59 58 328 275 292 284 283 291 305 313 320 325 332 328 319 321 326 328 326 324 318 309 302 284 274 273 272 280 268 270 260 262 270 273 284
161 160 161 164 164 171 177 176 231 249 255 266 274 282 289 301 310 323 333 330 324 323 325 329 335 336 328 327 324 320 316 289 282 282 276 268 272 264 259 259 272 276 271
170 170 172 179 189 202 216 222 231 245 263 269 272 288 300 286 326 338 331 319 323 326 325 331 333 332 334 332 330 330 326 298 286 289 298 273 268 268 265 269 272 274 263
178 183 187 193 205 219 231 235 242 250 252 259 285 302 288 293 328 330 330 321 324 324 325 333 335 339 338 333 325 331 322 308 286 290 285 276 274 271 270 273 271 266 262
191 195 202 207 216 225 237 243 248 249 254 275 305 291 286 303 316 321 335 324 325 324 326 331 335 335 339 348 340 335 326 315 304 294 289 279 271 275 273 270 267 260 256
201 207 213 218 227 236 244 249 245 251 267 287 303 282 283 301 311 320 332 331 329 333 335 337 341 336 329 329 330 328 318 314 308 304 296 289 279 274 274 269 262 255 252
211 218 223 229 236 242 243 238 239 261 280 282 296 284 279 298 307 320 327 329 332 332 337 335 336 336 331 329 325 326 323 317 314 312 312 309 295 272 268 266 263 261 259
222 227 233 239 250 251 247 243 260 280 279 283 294 289 275 290 301 312 318 329 329 326 330 332 332 332 333 331 325 320 319 320 314 318 326 340 18 13 342 281 285 275 260
233 238 246 249 251 248 250 262 289 282 283 289 294 299 283 289 299 300 309 326 325 323 325 329 331 331 330 327 323 315 309 314 299 290 310 297 333 340 298 281 292 288 273
246 232 232 245 243 248 259 287 289 287 290 290 293 294 295 291 296 299 301 316 316 321 316 321 326 328 332 324 316 310 306 313 308 296 273 263 283 301 286 282 295 304 284
216 241 252 257 274 277 288 279 285 291 293 299 298 299 299 294 295 296 302 303 313 310 312 313 320 324 330 322 309 282 310 324 339 314 279 275 282 286 285 283 294 302 316
259 285 269 305 331 310 275 286 300 293 292 300 304 300 293 292 295 296 300 294 306 305 305 307 317 322 327 323 296 267 277 165 345 316 310 286 300 320 306 257 333 67 77
292 278 272 297 317 315 291 285 293 296 310 302 298 294 294 292 294 296 292 291 297 298 302 301 311 320 325 320 269 266 246 224 268 332 332 328 319 42 102 124 114 107 95
293 273 266 282 297 294 292 295 295 298 304 304 307 295 292 292 292 290 291 290 288 292 296 296 303 311 318 306 270 268 255 239 248 272 264 172 145 138 128 152 134 111 51
283 270 294 308 297 303 300 295 312 309 299 290 301 297 289 290 290 289 289 290 285 286 291 291 296 298 305 303 268 262 261 258 247 245 238 232 209 186 183 216 233 266 298
325 298 287 301 320 328 319 304 304 298 289 292 303 311 302 293 292 283 287 285 287 283 285 287 287 287 293 299 270 257 265 270 251 244 242 234 229 228 224 232 265 265 260
48 3 8 16 0 333 330 331 333 326 319 316 323 324 318 318 307 295 283 283 285 283 284 285 284 275 279 288 283 255 257 260 260 251 245 242 237 232 232 224 250 272 253
36 35 31 19 11 358 351 350 350 350 343 336 331 329 324 319 321 316 303 287 281 278 278 279 278 275 271 273 273 272 251 253 256 241 239 241 240 234 231 234 243 256 238